{"data":{"norad_id":65538,"intl_designator":"2025-200U","name":"STARLINK-35144","alt_names":[],"object_type":"PAYLOAD","status":"ACTIVE","operator":null,"country":"US","launch_date":"2025-09-06","launch_site_code":"AFWTR","launch_vehicle":null,"mission":null,"orbit_class":"UNKNOWN","rcs_meters":null,"size_class":null,"mass_kg":null,"dimensions":null,"purposes":["comms"],"wikipedia_slug":null,"has_3d_model":false,"image_url":null,"decayed_at":null,"tle_current":{"epoch":"2026-05-25T03:29:40.322976Z","epoch_age_seconds":65972,"freshness":"FRESH","line1":"1 65538U 25200U   26145.14560559  .00006148  00000+0  42964-3 0  9995","line2":"2 65538  97.4475 214.7678 0002380 132.4914 227.6514 15.05659921 40630","mean_motion":15.05659921,"eccentricity":0.000238,"inclination_deg":97.4475,"raan_deg":214.7678,"arg_perigee_deg":132.4914,"mean_anomaly_deg":227.6514,"bstar":0.00042964,"rev_number":4063,"period_min":95.639126732125,"perigee_km":547.83194950433,"apogee_km":551.12949554025,"semimajor_km":6927.6177225223,"source":"CELESTRAK","updated_at":"2026-05-25T13:38:20.850199Z"}}}